CW4829 Weather Reports


Display with metric or nautical units.
time (UTC)temp
F
wind
direction
speed
MPH
gust
MPH
rain 1hr
in
rain 24hr
in
rain mn
in
humidity
%
barometer
mb
20260510155031 61 88 2.0 9.0 0.00 0.00 0.00 52 1013.5
20260510154547 61 355 4.0 9.0 0.00 0.00 0.00 52 1013.5
20260510153526 61 345 4.0 7.0 0.00 0.00 0.00 52 1013.3
20260510153041 61 47 3.0 7.0 0.00 0.00 0.00 52 1013.3
20260510152559 62 351 3.0 6.0 0.00 0.00 0.00 53 1013.2
20260510151520 61 225 1.0 5.0 0.00 0.00 0.00 55 1013.2
20260510151027 60 129 2.0 7.0 0.00 0.00 0.00 54 1012.9
20260510150548 60 24 3.0 7.0 0.00 0.00 0.00 54 1012.9
20260510150048 60 142 3.0 9.0 0.00 0.00 0.00 55 1012.9
20260510145035 60 350 2.0 5.0 0.00 0.00 0.00 55 1012.8
20260510144543 60 92 2.0 7.0 0.00 0.00 0.00 55 1012.8
20260510144113 60 348 2.0 7.0 0.00 0.00 0.00 56 1012.6
20260510143630 60 317 2.0 6.0 0.00 0.00 0.00 55 1012.6
20260510143033 59 348 2.0 5.0 0.00 0.00 0.00 56 1012.6
20260510142032 59 84 2.0 5.0 0.00 0.00 0.00 57 1012.3
20260510141028 58 120 2.0 5.0 0.00 0.00 0.00 58 1012.2
20260510140531 58 350 2.0 4.0 0.00 0.00 0.00 58 1012.2
20260510140043 57 60 2.0 7.0 0.00 0.00 0.00 59 1012.2
20260510135546 57 121 2.0 7.0 0.00 0.00 0.00 58 1012.2
20260510135051 57 117 1.0 6.0 0.00 0.00 0.00 59 1012.2
20260510134043 57 65 2.0 6.0 0.00 0.00 0.00 60 1012.0
20260510133035 56 103 3.0 7.0 0.00 0.00 0.00 60 1012.0
20260510132019 55 12 2.0 4.0 0.00 0.00 0.00 62 1012.1
20260510131532 55 103 1.0 4.0 0.00 0.00 0.00 61 1012.1
20260510131038 54 64 2.0 7.0 0.00 0.00 0.00 61 1011.8
20260510130559 54 69 2.0 7.0 0.00 0.00 0.00 61 1011.8
20260510130112 54 15 2.0 5.0 0.00 0.00 0.00 61 1011.8
20260510125614 54 78 0.0 5.0 0.00 0.01 0.00 61 1011.7
20260510125018 54 28 2.0 4.0 0.00 0.01 0.00 62 1011.7
20260510124522 54 38 1.0 4.0 0.00 0.01 0.00 62 1011.7
20260510124039 54 59 1.0 3.0 0.00 0.01 0.00 63 1011.4
20260510123558 54 5 1.0 3.0 0.00 0.01 0.00 63 1011.4
20260510122548 54 54 1.0 4.0 0.00 0.01 0.00 64 1011.1
20260510122054 54 92 0.0 5.0 0.00 0.01 0.00 65 1011.1
20260510121600 53 92 0.0 5.0 0.00 0.01 0.00 65 1011.1
20260510121107 53 30 0.0 0.0 0.00 0.01 0.00 65 1011.0
20260510120032 53 15 0.0 0.0 0.00 0.01 0.00 65 1011.0
20260510115037 53 11 0.0 0.0 0.00 0.01 0.00 65 1010.9
20260510114558 53 9 0.0 1.0 0.00 0.01 0.00 65 1010.9
20260510113548 53 9 1.0 2.0 0.00 0.01 0.00 65 1010.6
20260510113056 53 348 0.0 2.0 0.00 0.01 0.00 65 1010.6
20260510112606 53 348 1.0 3.0 0.00 0.01 0.00 65 1010.5
20260510111519 53 333 0.0 4.0 0.00 0.01 0.00 65 1010.5
20260510111045 53 333 2.0 4.0 0.00 0.01 0.00 65 1010.1
20260510110601 53 21 0.0 2.0 0.00 0.01 0.00 65 1010.1
20260510105523 54 9 1.0 4.0 0.00 0.01 0.00 65 1009.6
20260510105031 54 9 1.0 2.0 0.00 0.01 0.00 66 1009.6
20260510104541 54 5 0.0 3.0 0.00 0.01 0.00 65 1009.6
20260510104052 54 355 1.0 5.0 0.00 0.01 0.00 65 1009.6
20260510103605 54 355 2.0 5.0 0.00 0.01 0.00 65 1009.6
20260510103020 54 32 2.0 5.0 0.00 0.01 0.00 65 1009.6
20260510102529 55 20 0.0 5.0 0.00 0.01 0.00 65 1009.1
20260510101519 55 11 2.0 6.0 0.00 0.01 0.00 65 1009.1
20260510100524 55 328 3.0 5.0 0.00 0.01 0.00 65 1009.1
20260510100042 55 327 1.0 3.0 0.00 0.01 0.00 65 1009.1
20260510095024 55 327 1.0 5.0 0.00 0.01 0.00 64 1008.5
20260510094528 56 327 3.0 5.0 0.00 0.01 0.00 64 1008.5
20260510094049 56 304 1.0 5.0 0.00 0.01 0.00 64 1008.5
20260510093544 56 323 2.0 3.0 0.00 0.01 0.00 64 1008.5
20260510093032 56 14 1.0 7.0 0.00 0.01 0.00 64 1008.5
20260510092601 56 348 3.0 8.0 0.00 0.01 0.00 64 1008.1
20260510092046 56 76 3.0 8.0 0.00 0.01 0.00 65 1008.1
20260510091552 56 32 3.0 8.0 0.00 0.01 0.00 65 1008.1
20260510091052 57 346 3.0 8.0 0.00 0.01 0.00 65 1008.0
20260510090603 57 355 2.0 8.0 0.00 0.01 0.00 66 1008.0
20260510085530 57 55 2.0 5.0 0.00 0.02 0.00 66 1007.6
20260510085055 57 306 2.0 8.0 0.00 0.02 0.00 66 1007.6
20260510084554 57 355 2.0 9.0 0.00 0.02 0.00 66 1007.6
20260510084046 57 14 2.0 6.0 0.00 0.02 0.00 67 1007.4
20260510083022 58 336 3.0 7.0 0.00 0.02 0.00 66 1007.4
20260510082540 58 333 2.0 11.0 0.00 0.02 0.00 66 1007.2
20260510081527 58 20 3.0 9.0 0.00 0.02 0.00 67 1007.2
20260510081054 58 355 3.0 9.0 0.00 0.02 0.00 67 1006.9
20260510080607 58 55 3.0 6.0 0.00 0.02 0.00 68 1006.9
20260510075517 59 337 3.0 7.0 0.00 0.03 0.00 68 1006.9
20260510075042 59 360 2.0 7.0 0.00 0.03 0.00 68 1006.9
20260510074600 59 346 3.0 7.0 0.00 0.03 0.00 68 1006.9
20260510074112 59 9 3.0 7.0 0.00 0.03 0.00 69 1006.9
20260510073608 59 338 3.0 6.0 0.00 0.03 0.00 69 1006.9
20260510072525 59 327 2.0 5.0 0.00 0.03 0.00 69 1006.9
20260510072044 59 238 1.0 3.0 0.00 0.03 0.00 69 1006.9
20260510071548 59 238 2.0 3.0 0.00 0.03 0.00 69 1006.9
20260510071047 59 236 1.0 2.0 0.00 0.03 0.00 69 1006.7
20260510070023 60 236 1.0 2.0 0.00 0.03 0.00 68 1006.7
20260510065551 60 236 0.0 2.0 0.00 0.05 0.00 68 1006.8
20260510064528 61 263 1.0 6.0 0.00 0.05 0.00 67 1006.8
20260510064051 61 244 1.0 7.0 0.00 0.05 0.00 67 1006.8
20260510063601 61 311 3.0 7.0 0.00 0.05 0.00 66 1006.8
20260510063058 61 295 1.0 5.0 0.00 0.05 0.00 66 1006.8
20260510062550 62 234 2.0 5.0 0.00 0.05 0.00 66 1006.6
20260510062108 62 263 2.0 6.0 0.00 0.05 0.00 66 1006.6
20260510061630 62 211 2.0 6.0 0.00 0.05 0.00 66 1006.6
20260510061017 62 276 3.0 10.0 0.00 0.05 0.00 66 1006.7
20260510060530 62 237 3.0 13.0 0.00 0.05 0.00 66 1006.7
20260510060043 63 191 3.0 13.0 0.00 0.05 0.00 66 1006.7
20260510055540 63 218 4.0 10.0 0.00 0.06 0.00 66 1006.6
20260510055023 63 219 3.0 7.0 0.00 0.06 0.00 66 1006.6
20260510054551 63 259 4.0 10.0 0.00 0.06 0.00 64 1006.6
20260510054018 63 261 3.0 11.0 0.00 0.06 0.00 66 1006.5
20260510053541 63 195 4.0 11.0 0.00 0.06 0.00 66 1006.5
20260510053032 62 207 4.0 8.0 0.00 0.06 0.00 66 1006.5
20260510052549 62 173 3.0 7.0 0.00 0.06 0.00 66 1006.3
20260510052020 62 208 2.0 7.0 0.00 0.06 0.00 66 1006.3
20260510051518 62 192 2.0 5.0 0.00 0.06 0.00 66 1006.3
20260510051033 62 202 2.0 5.0 0.00 0.06 0.00 66 1006.1
20260510050604 63 217 1.0 4.0 0.00 0.06 0.00 65 1006.1
20260510050034 62 257 2.0 4.0 0.00 0.06 0.00 65 1006.1
20260510045517 62 216 2.0 4.0 0.00 0.07 0.00 66 1005.9
20260510045042 62 203 2.0 5.0 0.00 0.07 0.00 65 1005.9
20260510044526 62 205 1.0 5.0 0.00 0.07 0.00 66 1005.9
20260510044031 62 198 3.0 5.0 0.00 0.07 0.00 65 1005.8
20260510043533 62 183 1.0 3.0 0.00 0.07 0.00 65 1005.8
20260510043022 62 183 1.0 2.0 0.00 0.07 0.00 65 1005.8
20260510042527 62 183 1.0 3.0 0.00 0.07 0.00 64 1005.7
20260510042108 62 183 0.0 4.0 0.00 0.07 0.00 64 1005.7
20260510041528 62 183 2.0 4.0 0.00 0.07 0.00 64 1005.7
20260510041035 63 218 2.0 5.0 0.00 0.07 0.00 64 1005.5
20260510040535 63 218 2.0 5.0 0.00 0.07 0.00 64 1005.5
20260510040054 63 197 2.0 4.0 0.00 0.07 0.00 63 1005.5
20260510035553 63 197 2.0 4.0 0.00 0.08 0.07 63 1005.4
20260510034518 63 203 1.0 6.0 0.00 0.08 0.07 63 1005.4
20260510034023 63 203 3.0 6.0 0.00 0.08 0.07 63 1005.3
20260510033526 63 212 1.0 4.0 0.00 0.08 0.07 63 1005.3
20260510032629 63 212 2.0 5.0 0.00 0.08 0.07 63 1005.3
20260510032113 63 195 2.0 5.0 0.00 0.08 0.07 63 1005.3
20260510031022 63 188 3.0 5.0 0.00 0.08 0.07 62 1005.3
20260510030525 63 191 2.0 5.0 0.00 0.08 0.07 62 1005.3
20260510030049 64 198 1.0 5.0 0.00 0.08 0.07 61 1005.3
20260510025539 64 198 2.0 5.0 0.00 0.09 0.07 61 1005.3
20260510025054 64 186 2.0 4.0 0.00 0.09 0.07 61 1005.3
20260510024607 64 186 2.0 4.0 0.00 0.09 0.07 61 1005.3
20260510023526 64 203 2.0 4.0 0.00 0.09 0.07 60 1005.1
20260510023052 64 193 2.0 6.0 0.00 0.09 0.07 60 1005.1
20260510022549 64 187 3.0 6.0 0.00 0.09 0.07 60 1004.8
20260510022107 64 173 2.0 5.0 0.00 0.09 0.07 60 1004.8
20260510021600 64 188 2.0 4.0 0.00 0.09 0.07 60 1004.8
20260510021112 64 211 1.0 3.0 0.00 0.09 0.07 59 1004.7
20260510020615 64 211 1.0 3.0 0.00 0.09 0.07 59 1004.7
20260510020025 64 211 1.0 3.0 0.00 0.09 0.07 59 1004.7
20260510015534 65 211 1.0 4.0 0.00 0.09 0.07 58 1004.4
20260510015053 65 211 2.0 4.0 0.00 0.09 0.07 58 1004.4
20260510014033 65 211 3.0 5.0 0.00 0.09 0.07 57 1004.2
20260510013603 66 211 2.0 4.0 0.00 0.09 0.07 57 1004.2
20260510013043 66 211 1.0 4.0 0.00 0.09 0.07 56 1004.2
20260510012555 66 211 2.0 4.0 0.00 0.09 0.07 56 1004.0
20260510012045 66 211 2.0 4.0 0.00 0.09 0.07 55 1004.0
20260510011549 67 198 1.0 5.0 0.00 0.09 0.07 55 1004.0
20260510011116 67 182 2.0 6.0 0.00 0.09 0.07 55 1003.9
20260510010525 67 198 2.0 6.0 0.00 0.09 0.07 54 1003.9
20260510010043 67 179 1.0 7.0 0.00 0.09 0.07 54 1003.9
20260510005540 68 204 2.0 7.0 0.00 0.10 0.07 54 1003.7
20260510005059 68 200 3.0 8.0 0.00 0.10 0.07 53 1003.7
20260510004556 68 188 3.0 8.0 0.00 0.10 0.07 53 1003.7
20260510004108 68 221 3.0 8.0 0.00 0.10 0.07 53 1003.7
20260510003028 68 202 4.0 8.0 0.00 0.10 0.07 53 1003.7
20260510002547 68 200 2.0 9.0 0.00 0.10 0.07 53 1003.3
20260510001534 69 190 3.0 6.0 0.00 0.10 0.07 52 1003.3
20260510000526 69 215 3.0 7.0 0.00 0.10 0.07 52 1003.2
20260510000027 69 198 3.0 7.0 0.00 0.10 0.07 52 1003.2
20260509235551 69 188 2.0 7.0 0.00 0.10 0.07 52 1003.2
20260509234524 70 199 5.0 13.0 0.00 0.10 0.07 52 1003.2
20260509233518 70 200 3.0 10.0 0.00 0.10 0.07 52 1003.2
20260509233041 70 230 3.0 9.0 0.00 0.10 0.07 52 1003.2
20260509232540 70 252 5.0 10.0 0.00 0.10 0.07 52 1003.1
20260509232104 70 223 5.0 11.0 0.00 0.10 0.07 53 1003.1
20260509231622 70 294 5.0 11.0 0.00 0.10 0.07 53 1003.1
20260509231111 70 207 5.0 12.0 0.00 0.10 0.07 53 1003.0
20260509230047 70 190 3.0 11.0 0.00 0.10 0.07 53 1003.0
20260509225555 71 182 2.0 11.0 0.00 0.10 0.07 52 1003.1
20260509224520 71 182 6.0 11.0 0.00 0.10 0.07 51 1003.1
20260509224044 71 185 5.0 11.0 0.00 0.10 0.07 51 1002.8
20260509223546 71 243 4.0 14.0 0.00 0.10 0.07 51 1002.8
20260509222534 71 213 5.0 14.0 0.00 0.10 0.07 51 1002.7
20260509222108 71 148 6.0 14.0 0.00 0.10 0.07 51 1002.7
20260509221555 72 167 7.0 15.0 0.00 0.10 0.07 51 1002.7
20260509221113 72 168 4.0 10.0 0.00 0.10 0.07 53 1003.0
20260509220056 71 256 4.0 14.0 0.00 0.10 0.07 52 1003.0
20260509215039 71 245 3.0 14.0 0.00 0.10 0.07 53 1002.8
20260509214020 71 183 7.0 17.0 0.00 0.10 0.07 54 1003.0
20260509213541 71 201 6.0 17.0 0.00 0.10 0.07 55 1003.0
20260509212524 71 212 5.0 16.0 0.00 0.10 0.07 55 1003.2
20260509212038 71 194 6.0 16.0 0.00 0.10 0.07 55 1003.2
20260509211551 71 209 7.0 14.0 0.00 0.10 0.07 55 1003.2
20260509210534 71 181 5.0 19.0 0.00 0.10 0.07 56 1003.2
20260509210046 71 200 6.0 12.0 0.00 0.10 0.07 57 1003.2
20260509205559 71 174 7.0 13.0 0.00 0.10 0.07 56 1003.2
20260509205021 71 260 7.0 15.0 0.00 0.10 0.07 56 1003.2
20260509204546 71 224 5.0 16.0 0.00 0.10 0.07 57 1003.2
20260509204102 70 215 9.0 16.0 0.00 0.10 0.07 56 1003.2
20260509203553 71 265 5.0 10.0 0.00 0.10 0.07 58 1003.2
20260509203103 71 171 6.0 13.0 0.00 0.10 0.07 57 1003.2
20260509202034 70 194 8.0 18.0 0.00 0.10 0.07 58 1003.3
20260509201543 70 184 10.0 18.0 0.00 0.10 0.07 58 1003.3
20260509201100 70 168 6.0 14.0 0.00 0.10 0.07 59 1003.7
20260509200032 70 232 4.0 15.0 0.00 0.10 0.07 60 1003.7
20260509195529 70 195 7.0 18.0 0.00 0.10 0.07 59 1003.7
20260509194529 70 188 5.0 11.0 0.00 0.10 0.07 60 1003.7
20260509194029 70 218 4.0 10.0 0.00 0.10 0.07 61 1003.7
20260509193533 69 215 4.0 12.0 0.00 0.10 0.07 61 1003.7
20260509193044 69 189 5.0 12.0 0.00 0.10 0.07 61 1003.7
20260509192554 69 189 6.0 12.0 0.00 0.10 0.07 61 1003.8
20260509191530 69 233 6.0 12.0 0.00 0.10 0.07 62 1003.8
20260509191043 69 186 5.0 12.0 0.00 0.10 0.07 62 1004.0
20260509190020 68 196 8.0 16.0 0.00 0.10 0.07 63 1004.0
20260509185541 68 231 4.0 16.0 0.00 0.10 0.07 65 1004.1
20260509185059 68 214 4.0 16.0 0.00 0.10 0.07 64 1004.1
20260509184022 68 196 7.0 15.0 0.00 0.10 0.07 65 1004.2
20260509183526 68 183 4.0 9.0 0.00 0.10 0.07 65 1004.2
20260509183031 68 143 5.0 13.0 0.00 0.10 0.07 65 1004.2
20260509182542 67 222 6.0 13.0 0.00 0.10 0.07 65 1004.2
20260509182040 67 210 5.0 15.0 0.00 0.10 0.07 67 1004.2
20260509181517 67 227 6.0 14.0 0.00 0.10 0.07 67 1004.2
20260509181047 67 170 7.0 13.0 0.00 0.10 0.07 66 1004.2
20260509180032 66 178 5.0 12.0 0.00 0.10 0.07 68 1004.2
20260509175105 66 177 4.0 13.0 0.00 0.10 0.07 69 1004.5
20260509174554 66 215 5.0 15.0 0.00 0.10 0.07 69 1004.5
20260509174116 66 183 5.0 15.0 0.00 0.10 0.07 71 1004.6
20260509173524 66 222 5.0 12.0 0.00 0.10 0.07 71 1004.6
20260509173031 66 204 6.0 11.0 0.00 0.10 0.07 72 1004.6
20260509172542 65 275 5.0 11.0 0.00 0.10 0.07 72 1004.7
20260509171525 65 257 6.0 13.0 0.00 0.10 0.07 74 1004.7
20260509171039 64 246 7.0 13.0 0.00 0.10 0.07 74 1004.7
20260509170540 64 159 4.0 12.0 0.00 0.10 0.07 75 1004.7
20260509170044 64 196 4.0 12.0 0.00 0.10 0.07 76 1004.7
20260509165041 64 200 6.0 13.0 0.00 0.10 0.07 76 1004.8
20260509164057 64 238 4.0 11.0 0.00 0.10 0.07 78 1004.7
20260509163546 63 218 4.0 10.0 0.00 0.10 0.07 79 1004.7
20260509162538 62 201 3.0 9.0 0.00 0.10 0.07 80 1004.7
20260509161542 63 185 4.0 8.0 0.00 0.10 0.07 81 1004.7
20260509160536 62 190 5.0 14.0 0.00 0.10 0.07 81 1004.7
20260509160041 62 199 7.0 15.0 0.00 0.10 0.07 81 1004.7